マセニー彗星

C/2016 T2 ( Matheny )

English version
Home page
Updated on May 22, 2017

---------------------------------------------------------------------

・ プロフィール

発見日 2016年10月10日
発見光度 18.6等
発見者 Rose G. Matheny (Mount Lemmon Survey)

・ 写真集

・ 軌道要素

Epoch 2017 Jan. 7.0 TT = JDT 2457760.5
T 2016 Dec. 29.10320 TT                                 MPCW
q   1.9078306            (2000.0)            P               Q
z  +0.0098104      Peri.   92.28355     +0.01662747     -0.93560240
 +/-0.0000068      Node   339.09878     -0.25048270     +0.33756743
e   0.9812835      Incl.   81.31142     +0.96797828     +0.10342329
From 155 observations 2016 Oct. 10-2017 Mar. 24, mean residual 0".6.

・ 光度変化

        m1 = 13.0 + 5 logΔ + 10.0 log r

---------------------------------------------------------------------

軌道要素はM.P.E.C. 2017-J52に掲載されたものです。
光度グラフはComet for Windowsで作成したものです。

---------------------------------------------------------------------

Copyright(C) Seiichi Yoshida (comet@aerith.net). All rights reserved.